Location: *
(52.2090°N, 4.1550°W)
Time: 05:18:38
(UTC+00:00)

Cosmos 1408 - Pass Details

Date: 19 July 2019
Orbit: 470 x 497 km, 82.6° (Epoch: 21 August)

Event Time Altitude Azimuth Distance (km) Brightness Sun altitude
Exits shadow 22:20:44 - 212° (SSW) 2,456 5.8 -12.3°
Reaches altitude 10° 22:22:39 10° 220° (SW) 1,700 5.1 -12.5°
Maximum altitude 22:26:06 35° 288° (WNW) 825 4.2 -12.7°
Drops below altitude 10° 22:29:34 10° 355° (N) 1,713 6.5 -13.0°
Sets 22:31:50 0° 5° (N) 2,599 7.3 -13.1°
